Tracking 27086 objects as of 22-Mar-2023
HD Live streaming from Space Station
objects crossing your sky now

WESTAR 5

Track WESTAR 5 now!
WESTAR 5 is classified as:


NORAD ID: 13269
Int'l Code: 1982-058A
Perigee: 36,036.3 km
Apogee: 36,146.5 km
Inclination: 14.2 °
Period: 1,451.3 minutes
Semi major axis: 42462 km
RCS: 3.0486 m2 (large)
Launch date: June 9, 1982
Source: United States (US)
Launch site: AIR FORCE EASTERN TEST RANGE (AFETR)
Your satellite tracking list
Your tracking list is empty




NASA's NSSDC Master Catalog

Two Line Element Set (TLE):
1 13269U 82058A   23080.49567698 -.00000232  00000-0  00000+0 0  9998
2 13269  14.2381 345.8399 0012980 242.4492 299.3506  0.99219194107781
Source of the keplerian elements: AFSPC